AAL334 KDFW-KSAT

Flight info

Callsign AAL334
Flight time 0h 52m
Altitude 32000
Route JASPA7 WINDU QERVO3
Aircraft MD83/M-SDFGIRWY/C

Departure

Time 2026-05-06 19:56
Airport Dallas Fort Worth International Airport (KDFW)

Arrival

Time 2026-05-06 20:48
Airport San Antonio International Airport (KSAT)
Time Latitude Longitude Altitude Speed Heading
2026-05-06 19:33 32.89710 -97.04580 599 ft 0 kts 91°
2026-05-06 19:34 32.89625 -97.04575 599 ft 0 kts 81°
2026-05-06 19:47 32.89622 -97.04593 599 ft 4 kts 81°
2026-05-06 19:48 32.89618 -97.04625 599 ft 3 kts 81°
2026-05-06 19:48 32.89615 -97.04648 599 ft 4 kts 98°
2026-05-06 19:48 32.89622 -97.04665 598 ft 4 kts 159°
2026-05-06 19:48 32.89644 -97.04667 598 ft 4 kts 180°
2026-05-06 19:49 32.89661 -97.04667 598 ft 0 kts 180°
2026-05-06 19:51 32.89660 -97.04667 598 ft 1 kts 180°
2026-05-06 19:51 32.89625 -97.04667 598 ft 10 kts 180°
2026-05-06 19:51 32.89524 -97.04667 598 ft 19 kts 180°
2026-05-06 19:52 32.89380 -97.04669 598 ft 16 kts 186°
2026-05-06 19:52 32.89373 -97.04757 595 ft 17 kts 305°
2026-05-06 19:52 32.89387 -97.04889 598 ft 9 kts 226°
2026-05-06 19:52 32.89322 -97.04893 596 ft 15 kts 175°
2026-05-06 19:53 32.89175 -97.04890 592 ft 27 kts 180°
2026-05-06 19:53 32.88957 -97.04891 591 ft 36 kts 180°
2026-05-06 19:53 32.88680 -97.04893 589 ft 43 kts 180°
2026-05-06 19:53 32.88359 -97.04894 589 ft 49 kts 180°
2026-05-06 19:54 32.88016 -97.04895 588 ft 33 kts 180°
2026-05-06 19:54 32.87913 -97.04922 586 ft 10 kts 243°
2026-05-06 19:54 32.87909 -97.05036 587 ft 18 kts 271°
2026-05-06 19:54 32.88017 -97.05091 590 ft 26 kts
2026-05-06 19:55 32.88375 -97.05088 591 ft 80 kts
2026-05-06 19:55 32.89125 -97.05086 591 ft 133 kts
2026-05-06 19:55 32.90175 -97.05080 604 ft 177 kts
2026-05-06 19:55 32.91461 -97.05071 1158 ft 186 kts
2026-05-06 19:56 32.92737 -97.05053 1951 ft 186 kts
2026-05-06 19:56 32.94105 -97.05058 2392 ft 204 kts 360°
2026-05-06 19:56 32.95525 -97.05270 3105 ft 210 kts 347°
2026-05-06 19:56 32.96982 -97.05890 3083 ft 249 kts 340°
2026-05-06 19:57 32.98701 -97.06807 3107 ft 279 kts 335°
2026-05-06 19:57 33.00071 -97.08187 4663 ft 242 kts 302°
2026-05-06 19:57 33.00780 -97.09961 5583 ft 237 kts 283°
2026-05-06 19:57 33.00985 -97.11894 6260 ft 236 kts 269°
2026-05-06 19:58 33.00946 -97.13888 6798 ft 241 kts 265°
2026-05-06 19:58 33.00850 -97.15873 7264 ft 248 kts 264°
2026-05-06 19:58 33.00703 -97.17954 7693 ft 256 kts 262°
2026-05-06 19:58 33.00480 -97.20089 8139 ft 263 kts 261°
2026-05-06 19:59 33.00224 -97.22253 8692 ft 265 kts 260°
2026-05-06 19:59 32.99684 -97.24339 9250 ft 266 kts 237°
2026-05-06 19:59 32.98446 -97.25987 9809 ft 268 kts 224°
2026-05-06 19:59 32.97065 -97.27507 10221 ft 276 kts 224°
2026-05-06 20:00 32.95532 -97.28983 10397 ft 294 kts 210°
2026-05-06 20:00 32.93502 -97.29642 10541 ft 317 kts 185°
2026-05-06 20:00 32.91242 -97.29492 10770 ft 333 kts 179°
2026-05-06 20:00 32.88890 -97.29222 10955 ft 347 kts 179°
2026-05-06 20:01 32.86447 -97.28957 11175 ft 356 kts 179°
2026-05-06 20:01 32.83974 -97.28706 11735 ft 356 kts 180°
2026-05-06 20:01 32.81507 -97.28485 12360 ft 354 kts 181°
2026-05-06 20:01 32.79050 -97.28304 12892 ft 355 kts 182°
2026-05-06 20:02 32.76589 -97.27738 13365 ft 368 kts 168°
2026-05-06 20:02 32.74173 -97.26686 13968 ft 371 kts 166°
2026-05-06 20:02 32.71772 -97.25552 14471 ft 373 kts 166°
2026-05-06 20:02 32.69348 -97.24396 14926 ft 377 kts 166°
2026-05-06 20:03 32.66905 -97.23237 15392 ft 380 kts 166°
2026-05-06 20:03 32.64435 -97.22083 15863 ft 383 kts 167°
2026-05-06 20:03 32.61983 -97.20953 16381 ft 384 kts 167°
2026-05-06 20:03 32.59484 -97.19813 16900 ft 386 kts 168°
2026-05-06 20:04 32.56965 -97.18676 17379 ft 389 kts 168°
2026-05-06 20:04 32.54426 -97.17535 17858 ft 392 kts 169°
2026-05-06 20:04 32.51869 -97.16387 18354 ft 394 kts 169°
2026-05-06 20:04 32.49301 -97.15235 18795 ft 396 kts 169°
2026-05-06 20:05 32.46713 -97.14074 19170 ft 400 kts 169°
2026-05-06 20:05 32.44103 -97.12903 19540 ft 403 kts 169°
2026-05-06 20:05 32.41475 -97.11721 19933 ft 405 kts 168°
2026-05-06 20:05 32.38831 -97.10538 20332 ft 408 kts 168°
2026-05-06 20:06 32.36171 -97.09339 20716 ft 411 kts 168°
2026-05-06 20:06 32.33488 -97.08124 21080 ft 414 kts 168°
2026-05-06 20:06 32.30793 -97.06902 21485 ft 416 kts 169°
2026-05-06 20:06 32.28055 -97.05931 21832 ft 404 kts 182°
2026-05-06 20:07 32.26220 -97.05786 22094 ft 396 kts 189°
2026-05-06 20:07 32.23476 -97.05867 22514 ft 395 kts 191°
2026-05-06 20:07 32.20723 -97.06014 22888 ft 397 kts 191°
2026-05-06 20:07 32.17952 -97.06167 23247 ft 400 kts 191°
2026-05-06 20:08 32.15162 -97.06315 23630 ft 402 kts 191°
2026-05-06 20:08 32.12349 -97.06451 23877 ft 407 kts 191°
2026-05-06 20:08 32.09515 -97.06565 24204 ft 409 kts 190°
2026-05-06 20:08 32.06667 -97.06657 24576 ft 410 kts 190°
2026-05-06 20:09 32.03810 -97.06739 24894 ft 412 kts 190°
2026-05-06 20:09 32.00936 -97.06820 25177 ft 414 kts 190°
2026-05-06 20:09 31.98046 -97.06901 25493 ft 416 kts 190°
2026-05-06 20:09 31.95148 -97.06984 25817 ft 418 kts 190°
2026-05-06 20:10 31.92241 -97.07069 26134 ft 419 kts 191°
2026-05-06 20:10 31.89321 -97.07156 26453 ft 420 kts 190°
2026-05-06 20:10 31.86433 -97.07243 26748 ft 421 kts 191°
2026-05-06 20:10 31.83517 -97.07328 27262 ft 417 kts 191°
2026-05-06 20:11 31.80625 -97.07411 27729 ft 415 kts 191°
2026-05-06 20:11 31.77745 -97.07498 28131 ft 414 kts 191°
2026-05-06 20:11 31.74871 -97.07588 28514 ft 413 kts 191°
2026-05-06 20:11 31.72002 -97.07678 28854 ft 412 kts 191°
2026-05-06 20:12 31.69137 -97.07767 29244 ft 411 kts 192°
2026-05-06 20:12 31.66283 -97.07856 29632 ft 410 kts 192°
2026-05-06 20:12 31.63439 -97.07944 30091 ft 408 kts 192°
2026-05-06 20:12 31.60608 -97.08030 30390 ft 407 kts 192°
2026-05-06 20:13 31.57780 -97.08119 30619 ft 407 kts 192°
2026-05-06 20:13 31.54955 -97.08208 30871 ft 406 kts 192°
2026-05-06 20:13 31.52193 -97.08543 31130 ft 390 kts 204°
2026-05-06 20:13 31.49624 -97.09447 31430 ft 382 kts 207°
2026-05-06 20:14 31.47123 -97.10470 31707 ft 380 kts 208°
2026-05-06 20:14 31.44628 -97.11512 31855 ft 382 kts 208°
2026-05-06 20:14 31.39613 -97.13584 31960 ft 381 kts 208°
2026-05-06 20:15 31.34609 -97.15575 31990 ft 379 kts 207°
2026-05-06 20:15 31.29654 -97.17508 31965 ft 379 kts 207°
2026-05-06 20:16 31.24625 -97.19463 31980 ft 383 kts 206°
2026-05-06 20:16 31.19561 -97.21427 31985 ft 383 kts 207°
2026-05-06 20:17 31.14520 -97.23378 31992 ft 381 kts 207°
2026-05-06 20:17 31.09494 -97.25323 31991 ft 380 kts 207°
2026-05-06 20:18 31.04469 -97.27277 31988 ft 381 kts 207°
2026-05-06 20:18 30.99424 -97.29244 31895 ft 386 kts 206°
2026-05-06 20:19 30.96849 -97.30251 31415 ft 393 kts 206°
2026-05-06 20:19 30.94271 -97.31252 30940 ft 388 kts 206°
2026-05-06 20:19 30.91729 -97.32229 30438 ft 382 kts 206°
2026-05-06 20:19 30.89219 -97.33195 29854 ft 378 kts 206°
2026-05-06 20:20 30.86727 -97.34157 29168 ft 376 kts 206°
2026-05-06 20:20 30.84257 -97.35114 28514 ft 373 kts 206°
2026-05-06 20:20 30.81835 -97.36053 27880 ft 371 kts 206°
2026-05-06 20:20 30.79396 -97.36998 27252 ft 368 kts 206°
2026-05-06 20:21 30.76972 -97.37935 26636 ft 366 kts 205°
2026-05-06 20:21 30.74560 -97.38866 26000 ft 364 kts 205°
2026-05-06 20:21 30.72165 -97.39792 25402 ft 362 kts 205°
2026-05-06 20:21 30.69781 -97.40712 24825 ft 360 kts 205°
2026-05-06 20:22 30.67413 -97.41625 24257 ft 358 kts 205°
2026-05-06 20:22 30.65057 -97.42532 23704 ft 356 kts 205°
2026-05-06 20:22 30.62715 -97.43434 23087 ft 354 kts 205°
2026-05-06 20:22 30.60382 -97.44333 22436 ft 352 kts 204°
2026-05-06 20:23 30.58065 -97.45227 21803 ft 350 kts 204°
2026-05-06 20:23 30.55756 -97.46117 21177 ft 349 kts 204°
2026-05-06 20:23 30.53459 -97.47002 20568 ft 347 kts 204°
2026-05-06 20:23 30.51174 -97.47881 19957 ft 345 kts 204°
2026-05-06 20:24 30.48904 -97.48753 19373 ft 343 kts 204°
2026-05-06 20:24 30.46684 -97.49606 18809 ft 341 kts 204°
2026-05-06 20:24 30.44436 -97.50469 18249 ft 340 kts 204°
2026-05-06 20:24 30.42199 -97.51329 17615 ft 338 kts 204°
2026-05-06 20:25 30.40002 -97.52172 16971 ft 336 kts 204°
2026-05-06 20:25 30.37801 -97.53050 16342 ft 332 kts 208°
2026-05-06 20:25 30.35769 -97.54262 15747 ft 327 kts 214°
2026-05-06 20:25 30.33834 -97.55618 15149 ft 324 kts 215°
2026-05-06 20:26 30.31931 -97.56987 14740 ft 317 kts 215°
2026-05-06 20:26 30.30093 -97.58304 14626 ft 308 kts 215°
2026-05-06 20:26 30.28259 -97.59618 14514 ft 312 kts 215°
2026-05-06 20:26 30.26407 -97.60934 14403 ft 313 kts 215°
2026-05-06 20:27 30.24550 -97.62242 14290 ft 313 kts 214°
2026-05-06 20:27 30.22688 -97.63540 14203 ft 313 kts 214°
2026-05-06 20:27 30.20820 -97.64832 14090 ft 312 kts 214°
2026-05-06 20:27 30.18948 -97.66121 13977 ft 313 kts 214°
2026-05-06 20:28 30.17082 -97.67404 13842 ft 313 kts 214°
2026-05-06 20:28 30.15206 -97.68695 13727 ft 313 kts 214°
2026-05-06 20:28 30.13367 -97.69960 13604 ft 313 kts 214°
2026-05-06 20:28 30.11490 -97.71247 13474 ft 313 kts 214°
2026-05-06 20:29 30.09615 -97.72534 13348 ft 313 kts 214°
2026-05-06 20:29 30.07741 -97.73820 13221 ft 313 kts 214°
2026-05-06 20:29 30.05866 -97.75106 13097 ft 313 kts 214°
2026-05-06 20:29 30.03994 -97.76392 12993 ft 313 kts 214°
2026-05-06 20:30 30.02123 -97.77677 12953 ft 313 kts 214°
2026-05-06 20:30 29.98382 -97.80242 12929 ft 313 kts 214°
2026-05-06 20:30 29.96510 -97.81526 12928 ft 312 kts 214°
2026-05-06 20:31 29.94642 -97.82807 12928 ft 312 kts 214°
2026-05-06 20:31 29.92771 -97.84089 12926 ft 313 kts 214°
2026-05-06 20:31 29.90909 -97.85385 12924 ft 312 kts 218°
2026-05-06 20:31 29.89426 -97.87159 12931 ft 308 kts 241°
2026-05-06 20:32 29.88550 -97.89415 12932 ft 310 kts 248°
2026-05-06 20:32 29.87796 -97.91740 12921 ft 309 kts 249°
2026-05-06 20:32 29.87060 -97.94072 12914 ft 311 kts 249°
2026-05-06 20:32 29.86331 -97.96417 12631 ft 312 kts 249°
2026-05-06 20:33 29.85600 -97.98749 12145 ft 307 kts 249°
2026-05-06 20:33 29.84891 -98.00978 11664 ft 294 kts 249°
2026-05-06 20:33 29.84127 -98.03111 11161 ft 283 kts 238°
2026-05-06 20:33 29.82856 -98.04787 10704 ft 277 kts 224°
2026-05-06 20:34 29.81413 -98.06235 10234 ft 274 kts 223°
2026-05-06 20:34 29.79964 -98.07664 9788 ft 274 kts 223°
2026-05-06 20:34 29.78518 -98.09080 9369 ft 271 kts 223°
2026-05-06 20:34 29.77078 -98.10479 9179 ft 272 kts 223°
2026-05-06 20:35 29.75631 -98.11886 9096 ft 273 kts 223°
2026-05-06 20:35 29.74182 -98.13304 9041 ft 275 kts 223°
2026-05-06 20:35 29.72733 -98.14737 9019 ft 274 kts 223°
2026-05-06 20:35 29.71290 -98.16173 9008 ft 275 kts 223°
2026-05-06 20:36 29.69848 -98.17615 9002 ft 275 kts 223°
2026-05-06 20:36 29.68404 -98.19066 9000 ft 276 kts 223°
2026-05-06 20:36 29.66965 -98.20513 9005 ft 274 kts 224°
2026-05-06 20:36 29.65550 -98.21940 9164 ft 266 kts 224°
2026-05-06 20:37 29.64154 -98.23343 8853 ft 269 kts 224°
2026-05-06 20:37 29.62760 -98.24744 8606 ft 263 kts 223°
2026-05-06 20:37 29.61400 -98.26112 8469 ft 257 kts 224°
2026-05-06 20:37 29.60053 -98.27466 8388 ft 258 kts 223°
2026-05-06 20:38 29.58700 -98.28824 8321 ft 259 kts 224°
2026-05-06 20:38 29.57332 -98.30203 8246 ft 263 kts 223°
2026-05-06 20:38 29.55946 -98.31601 8031 ft 266 kts 223°
2026-05-06 20:38 29.54539 -98.33016 7738 ft 267 kts 223°
2026-05-06 20:39 29.53184 -98.34374 7646 ft 252 kts 223°
2026-05-06 20:39 29.51876 -98.35677 7379 ft 247 kts 223°
2026-05-06 20:39 29.50582 -98.36974 6996 ft 247 kts 223°
2026-05-06 20:39 29.49300 -98.38257 6603 ft 248 kts 223°
2026-05-06 20:40 29.48001 -98.39560 6279 ft 246 kts 223°
2026-05-06 20:40 29.46729 -98.40826 6042 ft 240 kts 223°
2026-05-06 20:40 29.45476 -98.42046 5877 ft 232 kts 222°
2026-05-06 20:40 29.44260 -98.43218 5779 ft 227 kts 223°
2026-05-06 20:41 29.43046 -98.44396 5719 ft 231 kts 221°
2026-05-06 20:41 29.41806 -98.45596 5646 ft 236 kts 221°
2026-05-06 20:41 29.40543 -98.46807 5483 ft 239 kts 221°
2026-05-06 20:41 29.39264 -98.48041 5134 ft 241 kts 222°
2026-05-06 20:42 29.37982 -98.49286 4773 ft 242 kts 221°
2026-05-06 20:42 29.36716 -98.50510 4401 ft 235 kts 220°
2026-05-06 20:42 29.35469 -98.51707 4013 ft 233 kts 220°
2026-05-06 20:42 29.34265 -98.52940 3621 ft 232 kts 232°
2026-05-06 20:43 29.33616 -98.54567 3214 ft 229 kts 266°
2026-05-06 20:43 29.33913 -98.56318 2887 ft 219 kts 305°
2026-05-06 20:43 29.34994 -98.57410 2868 ft 213 kts 341°
2026-05-06 20:43 29.36402 -98.57686 3216 ft 199 kts 359°
2026-05-06 20:44 29.37852 -98.57750 3421 ft 223 kts 359°
2026-05-06 20:44 29.39439 -98.57759 3466 ft 227 kts
2026-05-06 20:44 29.40980 -98.57686 3448 ft 219 kts 12°
2026-05-06 20:44 29.42289 -98.56854 3355 ft 222 kts 43°
2026-05-06 20:45 29.43431 -98.55723 3067 ft 208 kts 38°
2026-05-06 20:45 29.44513 -98.54729 2703 ft 191 kts 40°
2026-05-06 20:45 29.45455 -98.53794 2494 ft 169 kts 40°
2026-05-06 20:45 29.46294 -98.52962 2290 ft 151 kts 39°
2026-05-06 20:46 29.47059 -98.52205 2107 ft 142 kts 40°
2026-05-06 20:46 29.47789 -98.51469 1981 ft 140 kts 40°
2026-05-06 20:46 29.48540 -98.50742 1791 ft 140 kts 42°
2026-05-06 20:46 29.49271 -98.50015 1575 ft 139 kts 41°
2026-05-06 20:47 29.49995 -98.49259 1289 ft 144 kts 38°
2026-05-06 20:47 29.50773 -98.48547 1205 ft 145 kts 38°
2026-05-06 20:47 29.51502 -98.47793 1095 ft 139 kts 37°
2026-05-06 20:47 29.52270 -98.47034 870 ft 145 kts 39°
2026-05-06 20:48 29.52978 -98.46352 800 ft 114 kts 40°
2026-05-06 20:48 29.53465 -98.45865 799 ft 78 kts 39°
2026-05-06 20:48 29.53697 -98.45671 799 ft 7 kts 331°
2026-05-06 20:48 29.53727 -98.45712 799 ft 7 kts 305°
2026-05-06 20:49 29.53730 -98.45784 799 ft 12 kts 242°
2026-05-06 20:49 29.53664 -98.45856 799 ft 15 kts 220°